Regional Weather Roundup
Issued by NWS

Home | Current Version | Previous Version | Text Only | Print | Product List | Glossary Off
Versions: 1 2 3 4 5 6 7 8 9 10 11 12 13 14 15 16 17 18 19 20 21 22 23 24 25 26 27 28 29 30 31 32 33 34 35 36 37 38 39 40 41 42 43 44 45 46 47 48 49 50

000
ASUS44 KMEG 180310
RWRTN
TENNESSEE HOURLY STATE WEATHER ROUNDUP
NATIONAL WEATHER SERVICE MEMPHIS TN
900 PM CST WED DEC 17 2014

TNZ002-004-019-021-049-052-054-088>092-180400-
WEST TENNESSEE

CITY           SKY/WX    TMP DP  RH WIND       PRES   REMARKS
MEMPHIS INTL   CLOUDY    41  31  67 E10       30.23F
NWS MEMPHIS      N/A     39 N/A N/A MISG        N/A
JACKSON        CLOUDY    38  30  73 CALM      30.26F
DYERSBURG      CLOUDY    37  21  52 CALM      30.28S
UNION CITY     MOCLDY    34  28  80 NE3       30.25F
PARIS          CLEAR     32  27  80 N3        30.25F
HUNTINGDON     CLOUDY    34  28  79 NE3       30.25F
LEXINGTON      PTCLDY    36  28  75 CALM      30.23F
SAVANNAH       CLEAR     37  30  75 NE3       30.24F
$$

TNZ008-025-027-028-033-062-065-066-180400-
NORTH MIDDLE TENNESSEE

CITY           SKY/WX    TMP DP  RH WIND       PRES   REMARKS
NASHVILLE      PTCLDY    34  28  79 CALM      30.27F
CLARKSVILLE    CLEAR     31  26  82 NE6       30.27F WCI  25
SMYRNA         PTCLDY    28  26  92 CALM      30.29S
COOKEVILLE     CLEAR     28  27  93 CALM      30.23S
CROSSVILLE     PTCLDY    33  28  81 CALM      30.20F
$$

TNZ061-075-076-078-094-096-097-180400-
SOUTH MIDDLE TENNESSEE

CITY           SKY/WX    TMP DP  RH WIND       PRES   REMARKS
FAYETTEVILLE   CLEAR     32  28  86 N10G23    30.24S WCI  24
TULLAHOMA      CLEAR     28  27  93 N3        30.24F
WINCHESTER     CLEAR     32  30  93 CALM      30.23F
MCMINNVILLE    CLEAR     30  30 100 CALM      30.23F
SHELBYVILLE    CLEAR     30  30 100 CALM      30.27R
$$

TNZ017-018-042-046-047-180400-
NORTHEAST TENNESSEE

CITY           SKY/WX    TMP DP  RH WIND       PRES   REMARKS
TRI CITIES     CLEAR     31  28  89 CALM      30.18S
ELIZABETHTON   MOCLDY    30  28  93 CALM      30.17S
$$

TNZ012-013-036-069-073-074-180400-
CENTRAL EAST TENNESSEE

CITY           SKY/WX    TMP DP  RH WIND       PRES   REMARKS
KNOXVILLE      MOCLDY    38  31  76 CALM      30.21R
OAK RIDGE      PTCLDY    34  30  85 CALM      30.23R
GATLINBURG     CLEAR     30  30 100 CALM      30.20R
MORRISTOWN     CLEAR     34  32  93 CALM      30.20S
$$

TNZ083-085-099-180400-
SOUTHEAST TENNESSEE

CITY           SKY/WX    TMP DP  RH WIND       PRES   REMARKS
CHATTANOOGA    MOCLDY    39  32  76 NW3       30.22S
$$

SKY/WX REPORTED AS FAIR MEANS FEW OR NO CLOUDS BELOW
12 THOUSAND FEET.




USA.gov is the U.S. government's official web portal to all federal, state and local government web resources and services.